[Date Prev][Date Next][Thread Prev][Thread Next] - [Date Index][Thread Index][Author Index]

2 Line ISS Keps 4-1



ISS
1 25544U 98067A   05090.88703704  .00016539  00000-0  13635-3 0  1392
2 25544 051.6457 296.4686 0005599 316.5422 245.0803 15.70495409363527
----
Via the sarex mailing list at AMSAT.ORG courtesy of AMSAT-NA.
To unsubscribe, send "unsubscribe sarex" to Majordomo@amsat.org



AMSAT Top AMSAT Home